User: anonymous
Location: Slidell
(30.2789°N, 89.7378°W)
Time: 16:36:04
(UTC-05:00)
Language:

Cosmos 2360 Rocket - Orbit

View from above orbital plane
View from above orbital plane
View from above satellite
View from above satellite

Ground track
Ground track

The orbit data is extracted from the following two-line orbital elements,

1 25407U 98045B   14233.50235428 -.00000317  00000-0 -13706-3 0  5388
2 25407 071.0122 047.2336 0009192 325.3188 096.3822 14.15667943830310
Epoch (UTC): 21 August 2014 12:03:23
Eccentricity: 0.0009192
inclination: 71.0122°
perigee height: 833 km
apogee height: 846 km
right ascension of ascending node: 47.2336°
argument of perigee: 325.3188°
revolutions per day: 14.15667943
mean anomaly at epoch: 96.3822°
orbit number at epoch: 83031

The dashed part of the orbit path shows where the satellite is in the earth's shadow,  

DLR